GW4795 Weather Reports


time (UTC)temp
F
wind
direction
speed
knots
gust
knots
rain 1hr
in
rain 24hr
in
rain mn
in
humidity
%
barometer
mb
20260503195010 76 279 3.5 7.0 0.00 0.00 0.00 50 1013.4
20260503194522 76 281 3.5 7.0 0.00 0.00 0.00 53 1013.5
20260503194009 76 230 3.5 6.1 0.00 0.00 0.00 51 1013.6
20260503193508 76 240 1.7 7.8 0.00 0.00 0.00 52 1013.6
20260503193032 76 315 3.5 8.7 0.00 0.00 0.00 56 1013.8
20260503192507 75 302 1.7 8.7 0.00 0.00 0.00 55 1013.8
20260503192011 74 292 2.6 8.7 0.00 0.00 0.00 53 1013.9
20260503191526 74 190 1.7 8.7 0.00 0.00 0.00 52 1013.9
20260503191004 74 257 4.3 8.7 0.00 0.00 0.00 56 1013.9
20260503190506 74 244 3.5 7.8 0.00 0.00 0.00 56 1014.0
20260503190014 74 275 4.3 7.8 0.00 0.00 0.00 55 1014.0
20260503185506 74 256 1.7 6.1 0.00 0.00 0.00 55 1014.0
20260503185008 74 254 0.9 7.0 0.00 0.00 0.00 56 1014.1
20260503184520 74 288 3.5 7.0 0.00 0.00 0.00 55 1014.2
20260503184007 74 275 3.5 7.0 0.00 0.00 0.00 56 1014.2
20260503183509 73 273 1.7 6.1 0.00 0.00 0.00 59 1014.3
20260503183026 72 254 1.7 6.1 0.00 0.00 0.00 58 1014.3
20260503182507 72 256 3.5 8.7 0.00 0.00 0.00 58 1014.4
20260503182015 72 320 2.6 8.7 0.00 0.00 0.00 59 1014.4
20260503181524 72 321 1.7 5.2 0.00 0.00 0.00 59 1014.4
20260503181007 72 232 1.7 7.0 0.00 0.00 0.00 59 1014.5
20260503180510 71 215 2.6 7.0 0.00 0.00 0.00 59 1014.6
20260503180043 71 246 2.6 7.0 0.00 0.00 0.00 61 1014.6
20260503175506 71 218 3.5 7.0 0.00 0.00 0.00 60 1014.7
20260503175003 71 301 2.6 4.3 0.00 0.00 0.00 61 1014.7
20260503174524 71 221 1.7 4.3 0.00 0.00 0.00 61 1014.7
20260503174007 71 216 0.9 5.2 0.00 0.00 0.00 62 1014.7
20260503173509 70 282 2.6 6.1 0.00 0.00 0.00 63 1014.7
20260503173034 70 321 2.6 6.1 0.00 0.00 0.00 62 1014.8
20260503172509 69 306 2.6 7.0 0.00 0.00 0.00 63 1014.9
20260503172007 69 299 3.5 7.0 0.00 0.00 0.00 62 1014.9
20260503171524 69 238 1.7 4.3 0.00 0.00 0.00 64 1014.9
20260503171006 68 336 0.9 5.2 0.00 0.00 0.00 64 1014.9
20260503170506 68 267 0.9 5.2 0.00 0.00 0.00 64 1014.9
20260503151002 53 241 0.9 1.7 0.00 0.00 0.00 92 1015.3
20260503150507 53 286 0.0 1.7 0.00 0.00 0.00 92 1015.3
20260503131007 48 17 0.0 0.9 0.00 0.00 0.00 89 1014.9
20260503130507 48 17 0.0 1.7 0.00 0.00 0.00 89 1014.9
20260503110510 50 352 0.0 1.7 0.00 0.00 0.00 87 1015.2
20260503090504 53 360 0.0 1.7 0.00 0.00 0.00 84 1015.4
20260503081537 54 13 0.0 0.9 0.00 0.00 0.00 82 1015.5
20260503081002 54 16 0.0 1.7 0.00 0.00 0.00 82 1015.4
20260503080502 54 16 0.0 1.7 0.00 0.00 0.00 82 1015.4
20260503072505 55 9 0.0 1.7 0.00 0.00 0.00 79 1015.2
20260503072002 56 9 0.0 1.7 0.00 0.00 0.00 78 1015.1
20260503071505 56 22 0.0 1.7 0.00 0.00 0.00 78 1015.2
20260503071003 56 23 0.0 1.7 0.00 0.00 0.00 77 1015.2
20260503070502 56 311 0.0 1.7 0.00 0.00 0.00 77 1015.1
20260503055003 59 295 0.0 1.7 0.00 0.00 0.00 73 1015.0
20260503054512 60 295 0.0 1.7 0.00 0.00 0.00 72 1015.0
20260503054004 60 295 0.0 0.9 0.00 0.00 0.00 71 1015.0
20260503053504 60 295 0.0 0.9 0.00 0.00 0.00 70 1015.0
20260503053008 60 295 0.0 0.9 0.00 0.00 0.00 69 1015.0
20260503052503 61 295 0.0 1.7 0.00 0.00 0.00 68 1015.1
20260503052004 61 295 0.0 1.7 0.00 0.00 0.00 67 1015.0
20260503051515 61 295 0.0 1.7 0.00 0.00 0.00 66 1015.0
20260503051002 61 295 0.0 1.7 0.00 0.00 0.00 65 1015.0
20260503050503 62 289 0.0 1.7 0.00 0.00 0.00 64 1015.0
20260503050009 62 315 0.0 0.0 0.00 0.00 0.00 63 1014.9
20260503045506 62 315 0.0 1.7 0.00 0.00 0.00 63 1014.8
20260503045004 62 315 0.0 1.7 0.00 0.00 0.00 63 1014.7
20260503044509 63 315 0.0 1.7 0.00 0.00 0.00 62 1014.7
20260503044003 63 315 0.0 1.7 0.00 0.00 0.00 62 1014.6
20260503043503 63 303 0.0 0.0 0.00 0.00 0.00 61 1014.6
20260503043006 63 303 0.0 0.0 0.00 0.00 0.00 61 1014.5
20260503042504 64 303 0.0 1.7 0.00 0.00 0.00 61 1014.5
20260503042003 64 303 0.0 1.7 0.00 0.00 0.00 60 1014.4
20260503041508 64 303 0.0 1.7 0.00 0.00 0.00 60 1014.4
20260503041006 64 304 0.0 1.7 0.00 0.00 0.00 59 1014.3
20260503040505 64 295 0.9 1.7 0.00 0.00 0.00 59 1014.3
20260503040008 65 325 0.0 1.7 0.00 0.00 0.00 58 1014.1
20260503035504 65 332 0.9 1.7 0.00 0.00 0.00 58 1014.1
20260503035005 65 19 0.9 1.7 0.00 0.00 0.00 58 1014.0
20260503034512 65 290 0.0 1.7 0.00 0.00 0.00 57 1013.9
20260503034003 66 326 0.0 1.7 0.00 0.00 0.00 57 1013.9
20260503033505 66 298 0.0 3.5 0.00 0.00 0.00 56 1013.9
20260503033022 66 304 0.0 4.3 0.00 0.00 0.00 56 1013.9
20260503032503 66 243 1.7 4.3 0.00 0.00 0.00 55 1013.8
20260503032002 67 274 0.9 4.3 0.00 0.00 0.00 55 1013.8
20260503031513 67 244 1.7 4.3 0.00 0.00 0.00 55 1013.8
20260503031003 67 257 0.9 3.5 0.00 0.00 0.00 55 1013.7
20260503030502 68 267 1.7 5.2 0.00 0.00 0.00 54 1013.7
20260503030022 68 246 0.9 5.2 0.00 0.00 0.00 54 1013.7
20260503025504 68 231 0.9 3.5 0.00 0.00 0.00 54 1013.7
20260503025003 68 265 0.9 4.3 0.00 0.00 0.00 54 1013.6
20260503024510 69 275 1.7 5.2 0.00 0.00 0.00 53 1013.6
20260503024004 69 293 1.7 5.2 0.00 0.00 0.00 53 1013.6
20260503023504 69 284 0.9 4.3 0.00 0.00 0.00 52 1013.5
20260503023014 69 288 1.7 8.7 0.00 0.00 0.00 52 1013.5
20260503022504 69 295 3.5 8.7 0.00 0.00 0.00 52 1013.5
20260503022005 70 267 2.6 6.1 0.00 0.00 0.00 53 1013.4
20260503021512 70 261 2.6 8.7 0.00 0.00 0.00 53 1013.4
20260503021006 70 266 4.3 8.7 0.00 0.00 0.00 53 1013.4
20260503020503 70 194 4.3 6.1 0.00 0.00 0.00 53 1013.4
20260503020016 70 290 0.9 5.2 0.00 0.00 0.00 54 1013.4
20260503015504 70 291 2.6 6.1 0.00 0.00 0.00 55 1013.4
20260503015007 70 290 2.6 6.1 0.00 0.00 0.00 54 1013.4
20260503014512 70 277 2.6 7.0 0.00 0.00 0.00 55 1013.5
20260503014006 70 281 3.5 8.7 0.00 0.00 0.00 55 1013.6
20260503013506 70 209 1.7 8.7 0.00 0.00 0.00 54 1013.6
20260503013010 70 269 2.6 7.8 0.00 0.00 0.00 55 1013.6
20260503012506 71 267 1.7 6.1 0.00 0.00 0.00 55 1013.7
20260503012006 71 277 3.5 7.0 0.00 0.00 0.00 55 1013.6
20260503011513 71 292 2.6 10.4 0.00 0.00 0.00 55 1013.7
20260503011008 71 238 3.5 10.4 0.00 0.00 0.00 54 1013.7
20260503010509 71 265 2.6 7.8 0.00 0.00 0.00 54 1013.7
20260503010019 71 322 3.5 8.7 0.00 0.00 0.00 54 1013.7
20260503005506 71 275 4.3 8.7 0.00 0.00 0.00 54 1013.7
20260503005007 71 299 4.3 8.7 0.00 0.00 0.00 55 1013.7
20260503004519 71 236 3.5 8.7 0.00 0.00 0.00 54 1013.8
20260503004006 72 272 2.6 8.7 0.00 0.00 0.00 53 1013.7
20260503003505 72 267 1.7 9.6 0.00 0.00 0.00 53 1013.7
20260503003014 72 268 5.2 12.2 0.00 0.00 0.00 52 1013.8
20260503002506 72 322 1.7 12.2 0.00 0.00 0.00 53 1013.8
20260503002005 72 286 4.3 12.2 0.00 0.00 0.00 53 1013.8
20260503001517 73 215 3.5 8.7 0.00 0.00 0.00 53 1013.8
20260503001006 73 277 2.6 8.7 0.00 0.00 0.00 54 1013.8
20260503000507 73 230 2.6 7.8 0.00 0.00 0.00 56 1013.9
20260503000028 73 232 2.6 8.7 0.00 0.00 0.00 54 1013.9
20260502235505 73 283 4.3 8.7 0.00 0.00 0.00 53 1013.9
20260502235006 73 267 2.6 8.7 0.00 0.00 0.00 53 1014.0
20260502234520 73 268 3.5 8.7 0.00 0.00 0.00 54 1014.1
20260502234009 73 281 5.2 11.3 0.00 0.00 0.00 54 1014.2
20260502233508 73 307 3.5 12.2 0.00 0.00 0.00 54 1014.3
20260502233020 74 306 4.3 12.2 0.00 0.00 0.00 54 1014.3
20260502232505 73 275 2.6 8.7 0.00 0.00 0.00 56 1014.4
20260502232006 73 260 2.6 8.7 0.00 0.00 0.00 55 1014.4
20260502231520 73 285 3.5 8.7 0.00 0.00 0.00 55 1014.5
20260502231008 74 250 4.3 8.7 0.00 0.00 0.00 55 1014.6
20260502230504 74 275 3.5 9.6 0.00 0.00 0.00 54 1014.7
20260502230008 74 314 3.5 9.6 0.00 0.00 0.00 54 1014.7
20260502225502 75 292 4.3 10.4 0.00 0.00 0.00 54 1014.8
20260502225006 74 312 4.3 10.4 0.00 0.00 0.00 54 1014.9
20260502224506 74 294 3.5 10.4 0.00 0.00 0.00 54 1015.0
20260502224003 75 292 4.3 10.4 0.00 0.00 0.00 55 1015.1
20260502223503 74 303 2.6 8.7 0.00 0.00 0.00 57 1015.1
20260502223010 74 282 3.5 8.7 0.00 0.00 0.00 56 1015.2
20260502222503 74 269 4.3 9.6 0.00 0.00 0.00 58 1015.3
20260502222005 74 265 5.2 9.6 0.00 0.00 0.00 54 1015.5
20260502221512 73 288 4.3 9.6 0.00 0.00 0.00 59 1015.5
20260502221004 73 187 4.3 10.4 0.00 0.00 0.00 56 1015.5
20260502220503 73 94 2.6 10.4 0.00 0.00 0.00 56 1015.5
20260502220013 73 233 4.3 9.6 0.00 0.00 0.00 57 1015.5
20260502215509 74 283 2.6 9.6 0.00 0.00 0.00 56 1015.6
20260502215005 73 244 3.5 9.6 0.00 0.00 0.00 58 1015.6
20260502214513 73 281 4.3 7.8 0.00 0.00 0.00 58 1015.7
20260502214003 73 269 3.5 9.6 0.00 0.00 0.00 56 1015.7
20260502213503 72 288 3.5 9.6 0.00 0.00 0.00 57 1015.7
20260502213010 72 297 6.1 9.6 0.00 0.00 0.00 57 1015.8
20260502212503 72 299 3.5 9.6 0.00 0.00 0.00 56 1015.8
20260502212004 72 273 5.2 9.6 0.00 0.00 0.00 56 1015.9
20260502211509 73 263 4.3 8.7 0.00 0.00 0.00 56 1015.9
20260502211004 72 249 2.6 7.8 0.00 0.00 0.00 61 1015.9
20260502210503 72 238 2.6 8.7 0.00 0.00 0.00 60 1016.0
20260502210015 72 275 5.2 8.7 0.00 0.00 0.00 58 1016.0
20260502205504 72 261 3.5 8.7 0.00 0.00 0.00 58 1016.1
20260502205007 71 148 3.5 8.7 0.00 0.00 0.00 64 1016.0
20260502204518 71 156 4.3 7.8 0.00 0.00 0.00 61 1016.1
20260502204007 70 258 3.5 8.7 0.00 0.00 0.00 61 1016.1
20260502203507 71 264 4.3 8.7 0.00 0.00 0.00 62 1016.2
20260502203004 70 264 2.6 8.7 0.00 0.00 0.00 64 1016.3
20260502202503 70 236 4.3 8.7 0.00 0.00 0.00 63 1016.3
20260502202003 69 229 3.5 7.0 0.00 0.00 0.00 63 1016.4
20260502201515 70 244 2.6 8.7 0.00 0.00 0.00 65 1016.4
20260502201004 69 256 4.3 8.7 0.00 0.00 0.00 64 1016.5
20260502200504 68 257 3.5 7.8 0.00 0.00 0.00 68 1016.5
20260502200012 68 215 4.3 7.8 0.00 0.00 0.00 68 1016.7
20260502195506 68 214 1.7 6.1 0.00 0.00 0.00 69 1016.7